Location: St. Louis
(38.6270°N, 90.1994°W)
Time: 22:30:41
(UTC-06:00)

ISS - Pass Details

Date: 07 August 2017
Orbit: 403 x 407 km, 51.6° (Epoch: 12 December)

Event Time Altitude Azimuth Distance (km) Brightness Sun altitude
Rises 22:04:55 0° 312° (NW) 2,320 1.6 -20.7°
Reaches altitude 10° 22:07:02 10° 317° (NW) 1,457 0.2 -21.0°
Enters shadow 22:09:51 49° 6° (N) 529 -3.1 -21.4°
